SCP
0 0 0 0 0 0 0 0 0 0 0 0 0 0 0 0 0 0 0 0 0 0 0 0 0 0 0 0 0 0 0 0 0 0 0 0 0 0
0 0 0 0 0 0 0 0 0 0 0 0 0 0 0 0 0 0 0 0 0 0 0 0 0 0 0 0 0 0 0 0 0 0 0 0 0 0
0 0 0 0 0 0 0 0 0 0 0 0 0 0 0 0 0 0 0 0 0 0 0 0 0 0 0 0 0 0 0 0 0 0 0 0 0 0
0 0 0 0 0 0 0 0 0 0 0 0 0 0 0 0 0 0 0 0 0 0 0 0 0 0 0 0 0 0 0 0 0 0 0 0 0 0
0 0 0 0 0 0 0 0 0 0 0 0 0 0 0 0 0 0 0 0 0 0 0 0 0 0 0 0 0 0 0 0 0 0 0 0 0 0
0 0 0 0 0 0 0 0 0 0 0 0 0 0 0 0 0 0 0 0 0 0 0 0 0 0 0 0 0 0 0 0 0 0 0 0 0 0
0 0 0 0 0 0 0 0 0 0 0 0 0 0 0 0 0 0 0 0 0 0 0 0 0 0 0 0 0 0 0 0 0 0 0 0 0 0
0 0 0 0 0 0 0 0 0 0 0 0 0 0 0 0 0 0 0 0 0 0 0 0 0 0 0 0 0 0 0 0 0 0 0 0 0 0
0 0 0 0 0 0 0 0 0 0 0 0 0 0 0 0 0 0 0 0 0 0 0 0 0 0 0 0 0 0 0 0 0 0 0 0 0 0
0 0 0 0 0 0 0 0 0 0 0 0 0 0 0 0 0 0 0 0 0 0 0 0 0 0 0 0 0 0 0 0 0 0 0 0 0 0
0 0 0 0 0 0 0 0 0 0 0 0 0 0 0 0 0 0 0 0 0 0 0 0 0 0 0 0 0 0 0 0 0 0 0 0 0 0
0 0 0 0 0 0 0 0 0 0 0 0 0 0 0 0 0 0 0 0 0 0 0 0 0 0 0 0 0 0 0 0 0 0 0 0 0 0
0 0 0 0 0 0 0 0 0 0 0 0 0 0 0 0 0 0 0 0 0 0 0 0 0 0 0 0 0 0 0 0 0 0 0 0 0 0
0 0 0 0 0 0 0 0 0 0 0 0 0 0 0 0 0 0 0 0 0 0 0 0 0 0 0 0 0 0 0 0 0 0 0 0 0 0
0 0 0 0 0 0 0 0 0 0 0 0 0 0 0 0 0 0 0 0 0 0 0 0 0 0 0 0 0 0 0 0 0 0 0 0 0 0
0 0 0 0 0 0 0 0 0 0 0 0 0 0 0 0 0 0 0 0 0 0 0 0 0 0 0 0 0 0 0 0 0 0 0 0 0 0
0 0 0 0 0 0 0 0 0 0 0 0 0 0 0 0 0 0 0 0 0 0 0 0 0 0 0 0 0 0 0 0 0 0 0 0 0 0
0 0 0 0 0 0 0 0 0 0 0 0 0 0 0 0 0 0 0 0 0 0 0 0 0 0 0 0 0 0 0 0 0 0 0 0 0 0
0 0 0 0 0 0 0 0 0 0 0 0 0 0 0 0 0 0 0 0 0 0 0 0 0 0 0 0 0 0 0 0 0 0 0 0 0 0
0 0 0 0 0 0 0 0 0 0 0 0 0 0 0 0 0 0 0 0 0 0 0 0 0 0 0 0 0 0 0 0 0 0 0 0 0 0
0 0 0 0 0 0 0 0 0 0 0 0 0 0 0 0 0 0 0 0 0 0 0 0 0 0 0 0 0 0 0 0 0 0 0 0 0 0
0 0 0 0 0 0 0 0 0 0 0 0 0 0 0 0 0 0 0 0 0 0 0 0 0 0 0 0 0 0 0 0 0 0 0 0 0 0
0 0 0 0 0 0 0 0 0 0 0 0 0 0 0 0 0 0 0 0 0 0 0 0 0 0 0 0 0 0 0 0 0 0 0 0 0 0
Wind_Speed
3 4 3 3 2 3 2 3 4 4 4 3 2 2 1 1 2 2 2 5 7 7 8 9 10 10 10 11 11 12 12 13 13 14 15 15 15 16
2 3 3 2 2 2 3 3 3 4 4 2 2 1 2 2 3 2 3 6 6 7 8 9 10 10 10 10 10 11 12 13 14 14 15 15 15 16
3 4 4 3 3 3 2 3 3 3 4 2 1 1 2 2 3 2 3 3 4 7 9 9 9 10 10 10 11 11 12 12 13 14 15 15 15 16
4 4 4 3 3 3 3 3 3 3 3 3 2 1 2 3 3 3 3 3 3 6 7 8 8 9 9 10 11 11 11 12 12 13 13 14 15 16
5 5 4 4 4 3 3 3 2 2 2 2 2 2 2 2 2 3 3 3 3 5 6 7 8 9 10 11 11 11 11 11 12 12 13 14 15 16
5 5 4 4 5 4 4 3 3 2 2 2 2 2 2 2 1 2 3 2 3 3 4 6 8 9 10 11 11 10 10 11 12 12 13 14 14 15
4 4 4 5 6 5 4 4 4 3 2 2 2 2 2 1 2 2 3 3 3 2 3 4 4 4 5 8 9 10 11 11 12 13 14 14 14 15
5 4 4 5 6 7 7 6 6 5 4 3 3 3 3 3 2 2 2 2 3 2 3 5 3 4 4 4 8 11 11 12 13 13 14 14 15 15
5 4 4 4 5 3 4 5 4 5 6 4 4 4 3 3 2 2 2 3 4 3 3 5 3 4 4 6 11 11 12 12 13 13 14 15 15 15
5 5 5 4 4 4 3 2 2 2 3 3 3 3 3 2 3 2 2 2 3 2 1 4 3 4 5 5 9 11 12 12 13 14 15 15 15 15
5 5 5 5 8 8 5 4 3 2 2 3 3 2 2 2 1 1 0 1 3 2 1 2 3 4 5 4 6 10 11 12 14 15 15 16 16 15
4 4 8 8 9 9 6 5 5 4 2 1 1 1 1 1 1 1 2 1 2 3 1 1 2 3 5 3 3 4 6 11 14 15 16 16 16 9
4 4 4 8 9 9 7 5 6 4 3 3 2 1 1 1 1 1 1 2 2 3 2 1 2 2 3 5 4 4 4 5 6 9 12 16 16 11
5 4 4 8 8 8 6 6 7 4 3 2 2 2 1 1 1 1 2 2 3 4 4 3 3 3 4 5 6 5 4 5 5 6 6 11 12 14
4 7 7 8 7 5 6 7 5 3 3 3 3 2 2 2 1 1 1 2 3 3 3 3 4 4 4 5 6 6 6 5 5 5 6 6 6 6
4 6 7 7 5 5 5 4 3 3 3 3 2 2 1 1 1 1 1 1 2 3 3 3 4 4 5 6 6 7 6 5 5 6 7 6 5 5
4 3 3 3 3 3 3 3 3 2 3 2 2 2 2 2 1 1 1 1 2 3 3 3 3 4 6 5 6 6 6 6 6 6 6 7 6 5
6 4 5 5 5 5 5 4 3 3 3 3 3 3 2 2 2 1 1 2 3 3 3 3 3 4 3 4 6 6 5 5 5 6 4 6 7 5
6 5 5 5 5 5 4 4 4 4 3 3 3 3 3 2 2 2 2 2 3 3 3 3 2 3 4 5 4 4 4 5 5 5 4 4 7 7
4 5 5 5 5 5 4 4 4 4 4 3 3 3 3 3 3 3 2 3 3 3 3 3 2 3 4 5 5 5 6 5 5 6 5 5 6 9
5 5 5 4 4 4 4 4 4 4 4 4 4 4 4 3 3 3 3 4 3 3 3 4 4 6 4 3 4 5 4 6 6 5 5 5 5 5
5 5 5 5 5 5 5 5 4 4 5 4 4 4 3 3 3 4 3 3 3 3 3 3 3 3 2 3 5 6 6 6 6 9 8 6 4 3
5 5 5 5 5 5 5 5 6 5 5 5 4 4 4 3 3 3 3 3 2 2 3 3 3 2 3 3 4 5 6 7 5 5 5 7 8 10
Wind_Direction
227 223 224 224 215 214 201 193 197 237 251 240 241 247 255 252 266 260 264 279 285 290 293 297 299 298 297 299 299 301 302 300 298 297 294 291 290 290
232 222 225 224 220 216 210 210 208 215 245 235 232 259 267 276 275 270 263 281 282 287 289 295 297 298 298 297 299 301 302 300 299 299 297 293 292 293
241 231 231 218 218 220 216 214 215 210 238 263 253 273 261 269 285 279 272 266 274 284 288 294 295 298 303 306 307 305 302 302 301 301 301 298 295 294
240 237 238 224 220 219 214 217 218 211 218 250 268 269 265 267 277 284 293 290 284 294 298 301 304 307 309 309 308 308 308 307 304 303 303 304 303 300
232 230 232 220 225 222 217 219 221 224 213 230 258 268 276 281 299 299 301 296 296 298 299 300 303 308 310 309 311 312 312 310 309 309 308 307 307 305
231 229 226 220 223 218 216 214 208 211 212 222 251 267 271 279 286 296 306 307 306 307 303 303 304 307 309 309 310 309 309 310 310 309 308 306 306 306
235 229 227 225 223 216 209 203 198 205 206 224 244 261 264 267 265 271 289 306 302 298 307 305 303 300 303 305 307 307 308 308 308 308 307 306 305 305
235 235 234 230 232 233 227 214 200 198 205 213 231 235 248 251 257 266 291 307 297 312 319 303 299 292 294 289 301 306 308 309 309 309 309 307 304 303
226 225 235 232 225 219 227 228 225 224 213 204 215 231 234 231 228 249 256 268 270 291 312 294 293 288 291 298 305 305 309 311 312 313 312 309 306 305
223 218 220 225 217 202 194 197 214 228 225 217 215 229 231 223 214 230 244 274 285 290 280 281 297 291 300 296 304 311 313 315 316 315 314 313 311 309
224 218 215 220 221 210 194 195 208 229 234 213 219 229 240 238 202 141 233 302 295 289 277 277 297 303 295 288 302 317 320 321 321 319 318 318 316 313
223 223 225 224 219 212 197 190 205 213 187 169 190 252 237 231 239 191 189 232 274 282 270 291 299 321 310 290 296 313 318 319 321 320 320 320 320 315
218 220 222 220 220 218 209 201 207 198 178 181 187 189 190 203 231 216 203 207 233 255 264 289 281 287 282 296 300 297 305 310 316 315 315 317 318 316
216 212 211 214 216 216 214 207 204 199 176 177 189 200 211 231 237 233 236 235 234 245 255 248 254 266 284 290 293 303 304 301 305 307 307 312 313 313
213 209 205 212 213 212 210 203 198 188 179 192 205 216 213 217 233 268 280 273 277 270 260 244 247 259 262 273 285 293 302 302 301 305 307 307 307 312
205 203 205 210 203 194 195 200 198 191 190 199 197 196 189 198 219 226 253 281 292 291 277 259 253 254 266 268 272 282 285 291 306 307 303 300 301 301
174 169 179 182 190 191 189 192 191 188 197 187 183 189 197 210 228 224 237 260 265 282 295 291 271 257 253 260 273 276 282 284 286 299 305 305 304 305
183 188 197 200 204 202 200 198 197 197 194 191 191 194 201 215 230 234 239 248 263 274 284 295 308 310 298 265 242 265 278 282 292 299 295 300 303 308
198 202 205 206 205 202 199 197 198 193 185 191 198 199 202 212 224 234 243 258 269 279 283 288 296 304 306 304 290 244 269 292 300 301 298 289 292 301
201 207 210 206 202 200 198 196 191 184 186 194 198 198 199 207 221 233 240 250 264 279 285 280 272 273 275 280 288 290 278 279 293 299 300 293 285 286
204 209 208 202 199 198 194 190 189 190 190 192 198 199 200 203 217 228 238 249 260 268 275 280 275 289 282 275 283 288 291 284 282 287 296 300 302 306
206 208 205 200 195 194 189 186 189 191 191 197 199 199 199 202 212 222 231 240 251 259 272 282 296 309 298 281 288 293 300 306 301 297 289 272 271 287
207 205 202 197 194 190 188 189 192 194 193 194 195 197 196 201 208 217 229 240 249 261 277 292 305 307 295 285 289 295 302 311 315 318 310 305 287 276